Location: Chevoux
(46.3801°N, 4.9476°E)
Time: 16:34:23
(UTC+00:00)

YAOGAN 1 - Pass Details

Date: 28 January 2021
Orbit: 618 x 620 km, 97.9° (Epoch: 28 February)

Event Time Altitude Azimuth Distance (km) Brightness Sun altitude
Rises 17:33:30 0° 140° (SE) 2,887 5.8 -9.6°
Reaches altitude 10° 17:35:50 10° 131° (SE) 1,986 4.8 -10.0°
Maximum altitude 17:39:41 33° 68° (ENE) 1,060 3.2 -10.7°
Drops below altitude 10° 17:43:34 10° 5° (N) 1,999 5.0 -11.3°
Sets 17:45:55 0° 356° (N) 2,909 5.9 -11.7°
